CBERS 2

Satellite information

Favourite Embed

Satellite Type and Status

PAYLOADIN ORBIT

Key statistics

Satellite CBERS 2 at a glance.

Uptime

7868

Days in orbit

Revolutions

≈ 14.4

Per day

Orbit

SSO

Sun Synchronous Orbit

Inclination

98.7

Latest

Satellite identification and parameters

Extended collection of information and parameters for CBERS 2.

Object identification

Identified? True

Debris? False

Object name: CBERS 2

International designator: 2003-049A

Object number (NORAD): 28057

Object ID (CCSDS): 28057

Country: PEOPLES REPUBLIC OF CHINA/BRAZIL (CHBZ)

Current information (Y/N): Y

RCS size: LARGE

Orbital parameters

Period: 100.243 minutes

Inclination: 98.7007 deg

SMA: 7148.197 km

Apoapsis: 770.369 km

Periapsis: 769.756 km

RAAN: 87.2811 deg

Eccentricy: 0.0000429

Argument of periapsis: 60.6427 deg

Mean anomaly: 299.4801 deg

Mean motion: 14.36507757 rev/day

Mean motion (dot): 0.00000289 rev/day2

B* drag term: 0.00011382 1/REarth

Two-line elements (TLE)

Creation date: May 6, 2025, 3:54 a.m.

Reference frame: TEME

Reference center: EARTH

Epoch: May 5, 2025, 9:25 p.m. UTC

TLE line 0: 0 CBERS 2

TLE line 1: 1 28057U 03049A 25125.89279042 .00000289 00000-0 11382-3 0 9991

TLE line 2: 2 28057 98.7007 87.2811 0000429 60.6427 299.4801 14.36507757128708

Live tracking on map

Real-time ground track for satellite CBERS 2.

In-orbit conjunctions

A list of the most updated potential collisions computed for object CBERS 2.

Target Orbit TCA Probability of collision Miss distance Type
COSMOS 1375 DEB LEO 2025-02-07 01:35:02 0.001411037 141.0 (m) DEBRIS
SL-16 DEB LEO 2024-10-15 12:29:12 0.0001407078 398.0 (m) DEBRIS
IRIDIUM 33 DEB LEO 2024-06-26 12:50:04 0.0003141559 470.0 (m) DEBRIS

Associated space launch

The satellite is China's first operational civilian remote-sensing satellite, specifically designed for the Chinese Ministry of Land and Resources (MLR).

CBERS 2 was lifted into orbit during the mission ‘Long March 4B | Zi Yuan 1-2’, on board a Long March 4B space rocket.

The launch took place on Oct. 21, 2003, 3:16 a.m. from Launch Complex 7.

For more information about the launch, click the button.

Launch to space Long March 4B | Zi Yuan 1-2
Long March 4B | Zi Yuan 1-2

Agency: N/A

Status: Launch Successful

Launch date: Oct. 21, 2003, 3:16 a.m. UTC

Rocket: Long March 4B

Launch pad: Launch Complex 7

Location: Taiyuan Satellite Launch Center, People's Republic of China

...

Latest news about this satellite

There are no fresh news available about this satellite. Check back as we update our databases every day.


Newsletter sign-up

Weekly statistics, charts and insights to help you stay on top of the space industry.